User: anonymous   Login
Location: Bjelajci
(45.0103°N, 16.1758°E)
Time: 05:54:20
(UTC+00:00)
Language:

CZ-4C R/B - Orbit

View from above orbital plane
View from above orbital plane
View from above satellite
View from above satellite

Ground track
Ground track

The orbit data is extracted from the following two-line orbital elements,

1 39211U 13037D   20273.33966595 +.00001147 +00000-0 +72012-4 0  9999
2 39211 097.9870 046.4405 0123049 214.2524 145.0722 15.05531145394771
Epoch (UTC): 29 September 2020 08:09:07
Eccentricity: 0.0123049
inclination: 97.9870°
perigee height: 464 km
apogee height: 635 km
right ascension of ascending node: 46.4405°
argument of perigee: 214.2524°
revolutions per day: 15.05531145
mean anomaly at epoch: 145.0722°
orbit number at epoch: 39477

The dashed part of the orbit path shows where the satellite is in the earth's shadow,  

DLR